Flag for U.S.A. Weather past 2 weeks in Spartanburg, South Carolina, U.S.A.

Now
57 °F

Sunny.


Feels Like: 56 °F
Forecast: 30 / 57 °F
Wind: 6 mph from South

Location: Spartanburg Memorial

Current Time: Mar 29, 2015 at 6:29:37 PM

Latest Report: Mar 29, 2015 at 6:15 PM


Visibility: 10 mi

Pressure: 30.26 "Hg

Humidity: 14%

Dew point: 9 °F

Location of SpartanburgLocation

Historic Weather in Spartanburg — Graph

°F

Spartanburg temperature yesterday

Maximum temperature yesterday: 54 °F (at 4:15 PM)
Minimum temperature yesterday: 36 °F (at 7:15 AM)
Average temperature yesterday: 44 °F

Past Weeks' High & Low Weather Summary

 TemperatureHumidityPressure
High84 °F (Mar 17, 4:15 PM)100% (Mar 14, 10:15 PM)30.44 "Hg (Mar 14, 10:15 PM)
Low28 °F (Mar 29, 7:15 AM)7% (Mar 15, 5:15 PM)29.67 "Hg (Mar 27, 5:15 AM)
Average58 °F57%30.06 "Hg
* Reported Mar 14 5:15 PM — Mar 29 5:15 PM, Spartanburg, Weather by CustomWeather, © 2015

Note: Actual official high and low records may vary slightly from our data, if they occured in-between our weather recording intervals... More about our weather records

Advertising

Spartanburg weather history for previous 24 hours

 ConditionsComfort  
Time TempWeatherWind HumidityBarometerVisibility
5:15 PM
Sun, Mar 29
55 °FSunny.5 mph15%30.27 "Hg10 mi
4:35 PM55 °FSunny.5 mph16%30.29 "Hg10 mi
4:15 PM55 °FSunny.No wind18%30.30 "Hg10 mi
3:35 PM54 °FSunny.8 mph21%30.33 "Hg10 mi
3:15 PM55 °FSunny.8 mph19%30.34 "Hg10 mi
2:35 PM52 °FSunny.7 mph19%30.36 "Hg10 mi
2:15 PM52 °FSunny.6 mph24%30.37 "Hg10 mi
1:35 PM50 °FSunny.3 mph24%30.40 "Hg10 mi
1:15 PM48 °FSunny.7 mph23%30.41 "Hg10 mi
12:35 PM46 °FSunny.3 mph25%30.40 "Hg10 mi
12:15 PM45 °FSunny.No wind27%30.41 "Hg10 mi
11:35 AM45 °FSunny.3 mph27%30.42 "Hg10 mi
11:15 AM43 °FSunny.3 mph29%30.43 "Hg10 mi
10:35 AM41 °FSunny.5 mph36%30.44 "Hg10 mi
10:15 AM39 °FSunny.5 mph39%30.44 "Hg10 mi
9:35 AM37 °FSunny.5 mph45%30.42 "Hg10 mi
9:15 AM36 °FSunny.No wind52%30.42 "Hg10 mi
8:35 AM32 °FSunny.No wind80%30.40 "Hg10 mi
8:15 AM28 °FClear.No wind74%30.40 "Hg10 mi
7:35 AM28 °FClear.No wind74%30.38 "Hg10 mi
7:15 AM28 °FClear.No wind80%30.36 "Hg10 mi
6:35 AM30 °FClear.No wind69%30.35 "Hg10 mi
6:15 AM30 °FClear.No wind69%30.34 "Hg10 mi
5:35 AM30 °FClear.No wind69%30.32 "Hg10 mi
5:15 AM30 °FClear.No wind69%30.32 "Hg10 mi
4:35 AM32 °FClear.No wind64%30.31 "Hg10 mi
4:15 AM30 °FClear.No wind75%30.30 "Hg10 mi
3:35 AM32 °FClear.No wind69%30.29 "Hg10 mi
3:15 AM34 °FClear.No wind51%30.29 "Hg10 mi
2:35 AM32 °FClear.No wind64%30.28 "Hg10 mi
2:15 AM32 °FClear.No wind64%30.28 "Hg10 mi
1:35 AM32 °FClear.No wind69%30.27 "Hg10 mi
1:15 AM34 °FClear.No wind56%30.27 "Hg10 mi
12:35 AM37 °FClear.3 mph38%30.25 "Hg10 mi
12:15 AM37 °FClear.3 mph35%30.25 "Hg10 mi
11:35 PM
Sat, Mar 28
41 °FClear.No wind31%30.24 "Hg10 mi
11:15 PM41 °FClear.5 mph31%30.23 "Hg10 mi
10:35 PM41 °FClear.7 mph31%30.22 "Hg10 mi
10:15 PM43 °FClear.6 mph26%30.21 "Hg10 mi
9:35 PM43 °FClear.8 mph26%30.19 "Hg10 mi
9:15 PM45 °FClear.9 mph23%30.16 "Hg10 mi
8:35 PM45 °FSunny.9 mph23%30.14 "Hg10 mi
8:15 PM46 °FSunny.9 mph23%30.13 "Hg10 mi
7:35 PM50 °FSunny.12 mph17%30.11 "Hg10 mi
7:15 PM50 °FSunny.14 mph16%30.10 "Hg10 mi
6:35 PM52 °FSunny.16 mph15%30.08 "Hg10 mi
6:15 PM52 °FSunny.18 mph15%30.07 "Hg10 mi
Weather by CustomWeather, © 2015

See weather overviewHow to use our weather pages